Location: Fort Worth, Tx
(32.7431°N, 97.3695°W)
Time: 20:21:40
(UTC-05:00)

Tiros 1 - Pass Details

Date: 11 October 2024
Orbit: 622 x 654 km, 48.4° (Epoch: 05 November)

Event Time Altitude Azimuth Distance (km) Brightness Sun altitude
Rises 08:41:13 0° 266° (W) 2,941 9.9 1.3°
Reaches altitude 10° 08:43:56 10° 280° (W) 2,027 9.1 1.8°
Maximum altitude 08:47:44 24° 334° (NNW) 1,321 8.5 2.6°
Drops below altitude 10° 08:51:30 10° 29° (NNE) 2,014 10.0 3.4°
Sets 08:54:12 0° 43° (NE) 2,917 11.0 4.0°
